Weather History for Grand Marais, MN

Change the Weather History Date:

Monday, December 31, 2012

  Actual Average (KCKC) Record (KCKC)
Temperature  
Mean Temperature 10 °F -  
Max Temperature 21 °F 15 °F 37 °F (2004)
Min Temperature 0 °F 1 °F -23 °F (2013)
Degree Days  
Heating Degree Days 54    
Moisture  
Dew Point -2 °F    
Average Humidity 60    
Maximum Humidity 72    
Minimum Humidity 47    
Precipitation  
Precipitation 0.00 in - - ()
Sea Level Pressure  
Sea Level Pressure 30.12 in    
Wind  
Wind Speed 5 mph (WNW)    
Max Wind Speed 12 mph    
Max Gust Speed 21 mph    
Averages and records for this station are not official NWS values.
T = Trace of Precipitation, MM = Missing Value Source: NWS Daily Summary

Daily Weather History Graph

Daily Weather History Graph

Search for Another Location

Airport:

Trip Planner

Search our weather history database for the weather conditions in past years. The results will help you decide how hot, cold, wet, or windy it might be!

Date:

Astronomy

Dec. 31, 2012 Rise Set
Actual Time 7:50 AM CST 4:19 PM CST
Civil Twilight 7:14 AM CST 4:55 PM CST
Nautical Twilight 6:34 AM CST 5:34 PM CST
Astronomical Twilight 5:57 AM CST 6:12 PM CST
Moon 8:06 PM CST (12/31) 9:17 AM CST (12/31)
Length of Visible Light 9h 41m
Length of Day
8h 29m
Waning Gibbous, 90% of the Moon is Illuminated
Dec 31
Waning Gibbous
Jan 4
Last Quarter
Jan 11
New
Jan 18
First Quarter
Jan 26
Full

Hourly Weather History & Observations

Time (CST) Temp. Windchill Dew Point Humidity Pressure Visibility Wind Dir Wind Speed Gust Speed Precip Events Conditions
12:56 AM 21.9 °F 14.5 °F 12.9 °F 68% 29.85 in - NW 5.8 mph 17.3 mph N/A   Unknown
1:56 AM 19.9 °F 9.3 °F 10.0 °F 65% 29.88 in - West 9.2 mph - N/A   Unknown
2:56 AM 19.0 °F - 7.0 °F 59% 29.91 in - Calm Calm - N/A   Unknown
3:56 AM 16.0 °F 7.4 °F 5.0 °F 62% 29.96 in - Variable 5.8 mph - N/A   Unknown
4:56 AM 15.1 °F 7.7 °F 3.0 °F 59% 29.99 in - Variable 4.6 mph - N/A   Unknown
5:56 AM 10.0 °F 1.8 °F -0.9 °F 61% 30.03 in - Variable 4.6 mph - N/A   Unknown
6:56 AM 7.0 °F -1.7 °F -2.9 °F 64% 30.07 in - Variable 4.6 mph - N/A   Unknown
7:56 AM 5.0 °F -8.1 °F -6.0 °F 61% 30.10 in - WNW 8.1 mph - N/A   Unknown
8:56 AM 5.0 °F -5.6 °F -6.0 °F 61% 30.12 in - Variable 5.8 mph - N/A   Unknown
9:56 AM 8.1 °F -2.0 °F -6.0 °F 53% 30.13 in - Variable 5.8 mph - N/A   Unknown
10:56 AM 9.0 °F -5.9 °F -5.1 °F 53% 30.14 in - NW 11.5 mph 17.3 mph N/A   Unknown
11:56 AM 10.9 °F 0.2 °F -5.1 °F 49% 30.16 in - Variable 6.9 mph - N/A   Unknown
12:56 PM 12.9 °F -0.2 °F -4.0 °F 47% 30.13 in - NNW 10.4 mph 20.7 mph N/A   Unknown
1:56 PM 12.9 °F 3.8 °F -2.9 °F 49% 30.15 in - Variable 5.8 mph 17.3 mph N/A   Unknown
2:56 PM 10.9 °F 4.7 °F -4.0 °F 51% 30.17 in - Variable 3.5 mph 16.1 mph N/A   Unknown
3:56 PM 10.0 °F 3.6 °F -4.0 °F 53% 30.19 in - Variable 3.5 mph - N/A   Unknown
4:56 PM 8.1 °F 1.4 °F -2.9 °F 61% 30.22 in - Variable 3.5 mph - N/A   Unknown
5:56 PM 6.1 °F -0.9 °F -4.0 °F 63% 30.24 in - West 3.5 mph - N/A   Unknown
6:56 PM 6.1 °F -0.9 °F -4.0 °F 63% 30.25 in - West 3.5 mph - N/A   Unknown
7:56 PM 6.1 °F -5.6 °F -4.0 °F 63% 30.25 in - SW 6.9 mph - N/A   Unknown
8:56 PM 5.0 °F -2.1 °F -4.0 °F 66% 30.26 in - Variable 3.5 mph - N/A   Unknown
9:56 PM 3.9 °F - -5.1 °F 66% 30.25 in - Calm Calm - N/A   Unknown
10:56 PM -0.0 °F -7.9 °F -7.1 °F 72% 30.25 in - West 3.5 mph - N/A   Unknown
11:56 PM 3.9 °F -3.4 °F -4.0 °F 70% 30.23 in - Variable 3.5 mph - N/A   Unknown